This is the latest recevied weather packets stored in our database for station/object SQ5LTL-2. If no packets are shown the sender has not sent any weather packets the latest 10 day(s).
| Time | Temp. | Humidity | Pressure | Rain* | Wind** | Luminosity | Snow |
|---|---|---|---|---|---|---|---|
| 1777536926 | 8.33° C | 38% | 1030.8 hPa | 0 mm | - | 445 W/m² | - |
| 1777536625 | 8.89° C | 37% | 1030.9 hPa | 0 mm | - | 432 W/m² | - |
| 1777536322 | 8.33° C | 38% | 1030.9 hPa | 0 mm | - | 450 W/m² | - |
| 1777536021 | 8.33° C | 38% | 1031 hPa | 0 mm | - | 460 W/m² | - |
| 1777535721 | 7.78° C | 38% | 1030.9 hPa | 0 mm | - | 454 W/m² | - |
| 1777535419 | 7.78° C | 40% | 1031 hPa | 0 mm | - | 426 W/m² | - |
| 1777535118 | 7.78° C | 41% | 1031 hPa | 0 mm | - | 420 W/m² | - |
| 1777534837 | 7.22° C | 43% | 1031 hPa | 0 mm | - | 406 W/m² | - |
| 1777534534 | 7.22° C | 43% | 1031.1 hPa | 0 mm | - | 382 W/m² | - |
| 1777534232 | 7.78° C | 44% | 1031.1 hPa | 0 mm | - | 393 W/m² | - |
| 1777533932 | 7.78° C | 44% | 1031.1 hPa | 0 mm | - | 376 W/m² | - |
| 1777533630 | 7.78° C | 46% | 1031.2 hPa | 0 mm | - | 354 W/m² | - |
| 1777533329 | 7.22° C | 46% | 1031.1 hPa | 0 mm | - | 331 W/m² | - |
| 1777533026 | 7.22° C | 48% | 1031.2 hPa | 0 mm | - | 306 W/m² | - |
| 1777532726 | 7.22° C | 48% | 1031.2 hPa | 0 mm | - | 316 W/m² | - |
| 1777532424 | 6.67° C | 50% | 1031.2 hPa | 0 mm | - | 308 W/m² | - |
| 1777532122 | 6.67° C | 50% | 1031.3 hPa | 0 mm | - | 289 W/m² | - |
| 1777531821 | 6.67° C | 50% | 1031.4 hPa | 0 mm | - | 280 W/m² | - |
| 1777531519 | 6.67° C | 50% | 1031.3 hPa | 0 mm | - | 279 W/m² | - |
| 1777531218 | 6.67° C | 51% | 1031.4 hPa | 0 mm | - | 264 W/m² | - |
| 1777530917 | 6.11° C | 53% | 1031.4 hPa | 0 mm | - | 250 W/m² | - |
| 1777530635 | 5.56° C | 54% | 1031.3 hPa | 0 mm | - | 251 W/m² | - |
| 1777530334 | 5.56° C | 55% | 1031.2 hPa | 0 mm | - | 239 W/m² | - |
| 1777530033 | 5.56° C | 55% | 1031.3 hPa | 0 mm | - | 208 W/m² | - |
| 1777529732 | 5.56° C | 56% | 1031.3 hPa | 0 mm | - | 206 W/m² | - |
* Rain latest hour (hover to see other rain measurements)
** Current wind speed in m/s (hover to see current wind gust speed)